Time,TemperatureF,DewpointF,PressureIn,WindDirection,WindDirectionDegrees,WindSpeedMPH,WindSpeedGustMPH,Humidity,HourlyPrecipIn,Conditions,Clouds,dailyrainin,SoftwareType,DateUTC
2013-10-19 00:01:00,43.1,39.5,30.00,WNW,295,3.0,3.0,87,0.00,,,0.00,Wunderground v.1.15,2013-10-19 04:01:00,
2013-10-19 00:05:00,43.0,39.4,30.00,WNW,302,3.0,3.0,87,0.00,,,0.00,Wunderground v.1.15,2013-10-19 04:05:00,
2013-10-19 00:10:00,42.9,39.6,30.00,WNW,289,3.0,4.0,88,0.00,,,0.00,Wunderground v.1.15,2013-10-19 04:10:00,
2013-10-19 00:15:00,42.9,39.6,30.00,WNW,301,3.0,4.0,88,0.00,,,0.00,Wunderground v.1.15,2013-10-19 04:15:00,
2013-10-19 00:25:00,43.0,39.7,29.98,NW,326,3.0,4.0,88,0.00,,,0.00,Wunderground v.1.15,2013-10-19 04:25:00,
2013-10-19 00:30:00,42.9,39.6,29.97,NNW,327,1.0,1.0,88,0.00,,,0.00,Wunderground v.1.15,2013-10-19 04:30:00,
2013-10-19 00:40:00,42.7,39.4,29.99,NW,310,3.0,5.0,88,0.00,,,0.00,Wunderground v.1.15,2013-10-19 04:40:00,
2013-10-19 00:45:00,42.5,39.5,29.99,NW,310,3.0,5.0,89,0.00,,,0.00,Wunderground v.1.15,2013-10-19 04:45:00,
2013-10-19 00:50:00,42.4,39.7,29.99,WNW,299,3.0,5.0,90,0.00,,,0.00,Wunderground v.1.15,2013-10-19 04:50:00,
2013-10-19 00:55:00,42.4,39.7,29.99,WNW,294,3.0,5.0,90,0.00,,,0.00,Wunderground v.1.15,2013-10-19 04:55:00,
2013-10-19 01:00:00,42.4,39.7,29.99,WNW,288,3.0,5.0,90,0.00,,,0.00,Wunderground v.1.15,2013-10-19 05:00:00,
2013-10-19 01:05:00,42.4,39.7,29.99,WNW,293,4.0,5.0,90,0.00,,,0.00,Wunderground v.1.15,2013-10-19 05:05:00,
2013-10-19 01:15:00,42.7,39.7,29.99,NNW,338,5.0,5.0,89,0.00,,,0.00,Wunderground v.1.15,2013-10-19 05:15:00,
2013-10-19 01:20:00,42.8,39.8,29.99,ENE,66,6.0,6.0,89,0.00,,,0.00,Wunderground v.1.15,2013-10-19 05:20:00,
2013-10-19 01:30:00,43.1,40.1,29.98,NW,316,6.0,6.0,89,0.00,,,0.00,Wunderground v.1.15,2013-10-19 05:30:00,
2013-10-19 01:35:00,43.2,39.9,29.98,NW,304,6.0,6.0,88,0.00,,,0.00,Wunderground v.1.15,2013-10-19 05:35:00,
2013-10-19 01:40:00,43.2,39.9,29.98,NW,319,5.0,5.0,88,0.00,,,0.00,Wunderground v.1.15,2013-10-19 05:40:00,
2013-10-19 01:50:00,43.2,39.9,29.98,NW,315,5.0,6.0,88,0.00,,,0.00,Wunderground v.1.15,2013-10-19 05:50:00,
2013-10-19 01:55:00,43.2,39.9,29.99,NW,310,5.0,9.0,88,0.00,,,0.00,Wunderground v.1.15,2013-10-19 05:55:00,
2013-10-19 02:00:00,43.2,39.9,29.98,NW,308,6.0,6.0,88,0.00,,,0.00,Wunderground v.1.15,2013-10-19 06:00:00,
2013-10-19 02:05:00,43.3,40.0,29.98,NNW,337,6.0,6.0,88,0.00,,,0.00,Wunderground v.1.15,2013-10-19 06:05:00,
2013-10-19 02:10:00,43.3,39.7,29.98,NW,308,6.0,7.0,87,0.00,,,0.00,Wunderground v.1.15,2013-10-19 06:10:00,
2013-10-19 02:20:00,43.3,39.7,29.98,NNE,13,6.0,6.0,87,0.00,,,0.00,Wunderground v.1.15,2013-10-19 06:20:00,
2013-10-19 02:25:00,43.3,39.7,29.98,NW,304,6.0,6.0,87,0.00,,,0.00,Wunderground v.1.15,2013-10-19 06:25:00,
2013-10-19 02:35:00,43.3,39.7,29.97,NW,310,5.0,8.0,87,0.00,,,0.00,Wunderground v.1.15,2013-10-19 06:35:00,
2013-10-19 02:40:00,43.3,39.7,29.97,NNW,327,6.0,6.0,87,0.00,,,0.00,Wunderground v.1.15,2013-10-19 06:40:00,
2013-10-19 02:45:00,43.3,39.7,29.97,NW,304,6.0,6.0,87,0.00,,,0.00,Wunderground v.1.15,2013-10-19 06:45:00,
2013-10-19 02:55:00,43.4,39.8,29.97,WNW,301,5.0,6.0,87,0.00,,,0.00,Wunderground v.1.15,2013-10-19 06:55:00,
2013-10-19 03:00:00,43.4,39.8,29.97,WNW,285,5.0,5.0,87,0.00,,,0.00,Wunderground v.1.15,2013-10-19 07:00:00,
2013-10-19 03:10:00,43.4,39.8,29.97,NW,310,4.0,7.0,87,0.00,,,0.00,Wunderground v.1.15,2013-10-19 07:10:00,
2013-10-19 03:15:00,43.4,39.8,29.97,NNE,32,5.0,7.0,87,0.00,,,0.00,Wunderground v.1.15,2013-10-19 07:15:00,
2013-10-19 03:20:00,43.4,39.8,29.97,NNW,327,5.0,5.0,87,0.00,,,0.00,Wunderground v.1.15,2013-10-19 07:20:00,
2013-10-19 03:30:00,43.5,40.2,29.97,NW,319,5.0,6.0,88,0.00,,,0.00,Wunderground v.1.15,2013-10-19 07:30:00,
2013-10-19 03:35:00,43.4,40.1,29.96,NNW,335,5.0,10.0,88,0.00,,,0.00,Wunderground v.1.15,2013-10-19 07:35:00,
2013-10-19 03:40:00,43.3,40.0,29.96,NW,312,5.0,10.0,88,0.00,,,0.00,Wunderground v.1.15,2013-10-19 07:40:00,
2013-10-19 03:50:00,43.2,40.2,29.95,NNW,332,4.0,10.0,89,0.00,,,0.00,Wunderground v.1.15,2013-10-19 07:50:00,
2013-10-19 03:55:00,43.1,40.1,29.95,NNW,328,4.0,10.0,89,0.00,,,0.00,Wunderground v.1.15,2013-10-19 07:55:00,
2013-10-19 04:05:00,42.9,40.2,29.95,WNW,300,4.0,10.0,90,0.00,,,0.01,Wunderground v.1.15,2013-10-19 08:05:00,
2013-10-19 04:10:00,42.8,40.4,29.95,NW,325,3.0,10.0,91,0.00,,,0.01,Wunderground v.1.15,2013-10-19 08:10:00,
2013-10-19 04:15:00,42.8,40.4,29.95,WNW,298,3.0,10.0,91,0.00,,,0.01,Wunderground v.1.15,2013-10-19 08:15:00,
2013-10-19 04:20:00,42.7,40.3,29.94,NW,315,3.0,10.0,91,0.00,,,0.01,Wunderground v.1.15,2013-10-19 08:20:00,
2013-10-19 04:25:00,42.7,40.5,29.94,WNW,293,3.0,10.0,92,0.00,,,0.01,Wunderground v.1.15,2013-10-19 08:25:00,
2013-10-19 04:30:00,42.6,40.4,29.94,NW,310,3.0,3.0,92,0.00,,,0.01,Wunderground v.1.15,2013-10-19 08:30:00,
2013-10-19 04:40:00,42.5,40.3,29.94,WNW,288,3.0,10.0,92,0.00,,,0.01,Wunderground v.1.15,2013-10-19 08:40:00,
2013-10-19 04:45:00,42.5,40.6,29.94,WNW,294,3.0,10.0,93,0.00,,,0.02,Wunderground v.1.15,2013-10-19 08:45:00,
2013-10-19 04:55:00,42.5,40.6,29.93,NW,304,3.0,10.0,93,0.00,,,0.02,Wunderground v.1.15,2013-10-19 08:55:00,
2013-10-19 05:00:00,42.4,40.5,29.93,WNW,282,2.0,10.0,93,0.00,,,0.02,Wunderground v.1.15,2013-10-19 09:00:00,
2013-10-19 05:05:00,42.4,40.8,29.93,West,273,2.0,10.0,94,0.00,,,0.02,Wunderground v.1.15,2013-10-19 09:05:00,
2013-10-19 05:15:00,42.3,40.7,29.93,WNW,284,3.0,10.0,94,0.00,,,0.03,Wunderground v.1.15,2013-10-19 09:15:00,
2013-10-19 05:20:00,42.3,40.7,29.93,NW,310,3.0,3.0,94,0.00,,,0.03,Wunderground v.1.15,2013-10-19 09:20:00,
2013-10-19 05:25:00,42.3,40.7,29.93,West,274,3.0,4.0,94,0.00,,,0.03,Wunderground v.1.15,2013-10-19 09:25:00,
2013-10-19 05:30:00,42.2,40.9,29.93,NW,315,3.0,10.0,95,0.00,,,0.03,Wunderground v.1.15,2013-10-19 09:30:00,
2013-10-19 05:40:00,42.1,40.8,29.93,WNW,301,3.0,10.0,95,0.00,,,0.04,Wunderground v.1.15,2013-10-19 09:40:00,
2013-10-19 05:45:00,42.0,40.7,29.93,WNW,300,2.0,10.0,95,0.00,,,0.04,Wunderground v.1.15,2013-10-19 09:45:00,
2013-10-19 05:50:00,42.0,40.7,29.93,NW,304,3.0,10.0,95,0.00,,,0.04,Wunderground v.1.15,2013-10-19 09:50:00,
2013-10-19 06:05:00,41.9,40.6,29.93,WNW,293,3.0,10.0,95,0.04,,,0.05,Wunderground v.1.15,2013-10-19 10:05:00,
2013-10-19 06:10:00,41.9,40.8,29.92,NW,306,2.0,10.0,96,0.04,,,0.06,Wunderground v.1.15,2013-10-19 10:10:00,
2013-10-19 06:20:00,41.9,40.8,29.92,WNW,295,3.0,10.0,96,0.04,,,0.06,Wunderground v.1.15,2013-10-19 10:20:00,
2013-10-19 06:25:00,41.8,40.7,29.92,WNW,293,3.0,10.0,96,0.04,,,0.07,Wunderground v.1.15,2013-10-19 10:25:00,
2013-10-19 06:35:00,41.8,40.7,29.92,WNW,290,3.0,10.0,96,0.04,,,0.07,Wunderground v.1.15,2013-10-19 10:35:00,
2013-10-19 06:40:00,41.8,40.7,29.92,West,273,3.0,3.0,96,0.00,,,0.07,Wunderground v.1.15,2013-10-19 10:40:00,
2013-10-19 06:45:00,41.8,40.7,29.92,NW,308,4.0,5.0,96,0.00,,,0.07,Wunderground v.1.15,2013-10-19 10:45:00,
2013-10-19 06:55:00,41.8,40.7,29.92,WNW,285,3.0,10.0,96,0.00,,,0.08,Wunderground v.1.15,2013-10-19 10:55:00,
2013-10-19 07:00:00,41.8,40.7,29.92,WNW,288,4.0,4.0,96,0.00,,,0.08,Wunderground v.1.15,2013-10-19 11:00:00,
2013-10-19 07:10:00,41.8,40.7,29.92,WNW,291,4.0,5.0,96,0.04,,,0.09,Wunderground v.1.15,2013-10-19 11:10:00,
2013-10-19 07:15:00,41.7,40.9,29.92,NW,311,4.0,5.0,97,0.06,,,0.10,Wunderground v.1.15,2013-10-19 11:15:00,
2013-10-19 07:20:00,41.7,40.9,29.92,NNW,330,4.0,4.0,97,0.06,,,0.10,Wunderground v.1.15,2013-10-19 11:20:00,
2013-10-19 07:30:00,41.7,40.9,29.92,NNE,15,4.0,8.0,97,0.04,,,0.11,Wunderground v.1.15,2013-10-19 11:30:00,
2013-10-19 07:35:00,41.7,40.9,29.92,WNW,298,5.0,8.0,97,0.04,,,0.11,Wunderground v.1.15,2013-10-19 11:35:00,
2013-10-19 07:40:00,41.8,41.0,29.92,West,278,6.0,6.0,97,0.04,,,0.11,Wunderground v.1.15,2013-10-19 11:40:00,
2013-10-19 07:50:00,41.8,41.0,29.92,WNW,298,6.0,6.0,97,0.00,,,0.12,Wunderground v.1.15,2013-10-19 11:50:00,
2013-10-19 07:55:00,41.9,41.1,29.92,NNW,330,5.0,8.0,97,0.00,,,0.12,Wunderground v.1.15,2013-10-19 11:55:00,
2013-10-19 08:05:00,41.9,41.1,29.92,NNW,347,6.0,8.0,97,0.00,,,0.12,Wunderground v.1.15,2013-10-19 12:05:00,
2013-10-19 08:10:00,41.9,41.1,29.92,East,88,6.0,6.0,97,0.00,,,0.13,Wunderground v.1.15,2013-10-19 12:10:00,
2013-10-19 08:15:00,42.0,41.2,29.92,NE,38,5.0,7.0,97,0.00,,,0.13,Wunderground v.1.15,2013-10-19 12:15:00,
2013-10-19 08:20:00,41.9,41.1,29.92,North,9,6.0,8.0,97,0.06,,,0.14,Wunderground v.1.15,2013-10-19 12:20:00,
2013-10-19 08:25:00,41.9,41.1,29.92,NNE,27,7.0,8.0,97,0.06,,,0.14,Wunderground v.1.15,2013-10-19 12:25:00,
2013-10-19 08:30:00,41.9,41.1,29.92,NE,48,6.0,11.0,97,0.05,,,0.15,Wunderground v.1.15,2013-10-19 12:30:00,
2013-10-19 08:35:00,41.8,40.7,29.92,NNE,20,8.0,11.0,96,0.05,,,0.15,Wunderground v.1.15,2013-10-19 12:35:00,
2013-10-19 08:40:00,41.8,40.7,29.92,NE,41,8.0,8.0,96,0.05,,,0.15,Wunderground v.1.15,2013-10-19 12:40:00,
2013-10-19 08:45:00,41.7,40.6,29.92,NNE,30,6.0,8.0,96,0.04,,,0.16,Wunderground v.1.15,2013-10-19 12:45:00,
2013-10-19 08:55:00,41.5,39.9,29.92,NE,35,5.0,6.0,94,0.04,,,0.16,Wunderground v.1.15,2013-10-19 12:55:00,
2013-10-19 09:00:00,41.5,39.9,29.92,WSW,256,7.0,7.0,94,0.04,,,0.17,Wunderground v.1.15,2013-10-19 13:00:00,
2013-10-19 09:05:00,41.4,39.5,29.92,North,6,7.0,11.0,93,0.04,,,0.17,Wunderground v.1.15,2013-10-19 13:05:00,
2013-10-19 09:15:00,41.4,39.5,29.92,NNE,23,8.0,10.0,93,0.00,,,0.17,Wunderground v.1.15,2013-10-19 13:15:00,
2013-10-19 09:20:00,41.4,39.8,29.92,ESE,103,8.0,9.0,94,0.00,,,0.17,Wunderground v.1.15,2013-10-19 13:20:00,
2013-10-19 09:25:00,41.3,39.4,29.92,SW,219,7.0,9.0,93,0.00,,,0.17,Wunderground v.1.15,2013-10-19 13:25:00,
2013-10-19 09:30:00,41.3,39.4,29.92,NNE,32,6.0,9.0,93,0.00,,,0.17,Wunderground v.1.15,2013-10-19 13:30:00,
2013-10-19 09:35:00,41.3,39.4,29.93,NNE,24,6.0,10.0,93,0.00,,,0.17,Wunderground v.1.15,2013-10-19 13:35:00,
2013-10-19 09:40:00,41.3,39.7,29.92,North,11,7.0,7.0,94,0.00,,,0.17,Wunderground v.1.15,2013-10-19 13:40:00,
2013-10-19 09:45:00,41.4,39.8,29.92,East,97,6.0,7.0,94,0.00,,,0.17,Wunderground v.1.15,2013-10-19 13:45:00,
2013-10-19 09:50:00,41.5,39.9,29.92,NNW,330,6.0,6.0,94,0.00,,,0.17,Wunderground v.1.15,2013-10-19 13:50:00,
2013-10-19 10:00:00,41.6,40.0,29.92,East,89,4.0,4.0,94,0.00,,,0.17,Wunderground v.1.15,2013-10-19 14:00:00,
2013-10-19 10:10:00,41.5,39.6,29.92,WNW,298,5.0,6.0,93,0.00,,,0.17,Wunderground v.1.15,2013-10-19 14:10:00,
2013-10-19 10:15:00,41.5,39.9,29.92,NW,325,6.0,6.0,94,0.00,,,0.17,Wunderground v.1.15,2013-10-19 14:15:00,
2013-10-19 10:20:00,41.6,40.0,29.92,NNW,333,5.0,8.0,94,0.00,,,0.17,Wunderground v.1.15,2013-10-19 14:20:00,
2013-10-19 10:25:00,41.6,40.0,29.92,North,351,5.0,8.0,94,0.00,,,0.17,Wunderground v.1.15,2013-10-19 14:25:00,
2013-10-19 10:30:00,41.6,39.7,29.92,NNE,18,6.0,6.0,93,0.00,,,0.17,Wunderground v.1.15,2013-10-19 14:30:00,
2013-10-19 10:35:00,41.6,39.7,29.92,WNW,284,7.0,7.0,93,0.00,,,0.17,Wunderground v.1.15,2013-10-19 14:35:00,
2013-10-19 10:40:00,41.6,39.7,29.92,NW,311,5.0,13.0,93,0.00,,,0.17,Wunderground v.1.15,2013-10-19 14:40:00,
2013-10-19 10:45:00,41.6,39.7,29.92,NW,319,5.0,13.0,93,0.00,,,0.17,Wunderground v.1.15,2013-10-19 14:45:00,
2013-10-19 10:50:00,41.6,39.7,29.92,NW,304,6.0,6.0,93,0.00,,,0.17,Wunderground v.1.15,2013-10-19 14:50:00,
2013-10-19 10:55:00,41.7,39.8,29.92,NNW,339,6.0,7.0,93,0.00,,,0.17,Wunderground v.1.15,2013-10-19 14:55:00,
2013-10-19 11:00:00,41.7,39.8,29.92,NW,310,5.0,5.0,93,0.00,,,0.17,Wunderground v.1.15,2013-10-19 15:00:00,
2013-10-19 11:05:00,41.7,39.8,29.92,NW,315,5.0,7.0,93,0.00,,,0.17,Wunderground v.1.15,2013-10-19 15:05:00,
2013-10-19 11:15:00,41.6,39.7,29.91,NW,326,7.0,13.0,93,0.00,,,0.17,Wunderground v.1.15,2013-10-19 15:15:00,
2013-10-19 11:20:00,41.6,40.0,29.91,NW,318,7.0,13.0,94,0.00,,,0.17,Wunderground v.1.15,2013-10-19 15:20:00,
2013-10-19 11:25:00,41.7,40.1,29.91,NW,307,7.0,13.0,94,0.00,,,0.17,Wunderground v.1.15,2013-10-19 15:25:00,
2013-10-19 11:30:00,41.7,39.8,29.91,NNW,340,8.0,8.0,93,0.00,,,0.17,Wunderground v.1.15,2013-10-19 15:30:00,
2013-10-19 11:35:00,41.9,40.0,29.91,NW,319,8.0,9.0,93,0.00,,,0.17,Wunderground v.1.15,2013-10-19 15:35:00,
2013-10-19 11:40:00,42.2,40.3,29.91,WNW,293,8.0,13.0,93,0.00,,,0.17,Wunderground v.1.15,2013-10-19 15:40:00,
2013-10-19 11:45:00,42.5,40.6,29.91,NNE,22,8.0,13.0,93,0.00,,,0.17,Wunderground v.1.15,2013-10-19 15:45:00,
2013-10-19 11:50:00,42.8,40.6,29.91,WNW,300,7.0,13.0,92,0.00,,,0.17,Wunderground v.1.15,2013-10-19 15:50:00,
2013-10-19 11:55:00,43.0,40.8,29.90,NW,308,9.0,13.0,92,0.00,,,0.18,Wunderground v.1.15,2013-10-19 15:55:00,
2013-10-19 12:01:00,43.5,41.3,29.90,NW,316,10.0,13.0,92,0.00,,,0.18,Wunderground v.1.15,2013-10-19 16:01:00,
2013-10-19 12:10:00,44.4,41.4,29.90,East,101,11.0,11.0,89,0.00,,,0.18,Wunderground v.1.15,2013-10-19 16:10:00,
2013-10-19 12:15:00,44.8,41.5,29.90,NW,311,9.0,12.0,88,0.00,,,0.18,Wunderground v.1.15,2013-10-19 16:15:00,
2013-10-19 12:20:00,45.4,41.5,29.90,NW,310,10.0,10.0,86,0.00,,,0.18,Wunderground v.1.15,2013-10-19 16:20:00,
2013-10-19 12:30:00,46.1,41.8,29.90,NNE,25,11.0,11.0,85,0.00,,,0.18,Wunderground v.1.15,2013-10-19 16:30:00,
2013-10-19 12:40:00,46.7,42.1,29.89,NW,311,11.0,12.0,84,0.00,,,0.18,Wunderground v.1.15,2013-10-19 16:40:00,
2013-10-19 12:45:00,47.1,42.2,29.89,NW,315,12.0,13.0,83,0.00,,,0.18,Wunderground v.1.15,2013-10-19 16:45:00,
2013-10-19 12:50:00,47.5,42.3,29.89,NW,318,11.0,14.0,82,0.00,,,0.18,Wunderground v.1.15,2013-10-19 16:50:00,
2013-10-19 12:55:00,47.9,41.7,29.89,NW,307,9.0,14.0,79,0.00,,,0.18,Wunderground v.1.15,2013-10-19 16:55:00,
2013-10-19 13:00:00,47.9,41.0,29.89,North,5,10.0,10.0,77,0.00,,,0.18,Wunderground v.1.15,2013-10-19 17:00:00,
2013-10-19 13:05:00,48.3,41.8,29.89,NW,321,10.0,12.0,78,0.00,,,0.18,Wunderground v.1.15,2013-10-19 17:05:00,
2013-10-19 13:15:00,49.0,40.7,29.88,NNE,27,11.0,12.0,73,0.00,,,0.18,Wunderground v.1.15,2013-10-19 17:15:00,
2013-10-19 13:20:00,49.2,40.2,29.88,ENE,58,11.0,14.0,71,0.00,,,0.18,Wunderground v.1.15,2013-10-19 17:20:00,
2013-10-19 13:30:00,49.6,40.9,29.88,North,356,12.0,18.0,72,0.00,,,0.18,Wunderground v.1.15,2013-10-19 17:30:00,
2013-10-19 13:35:00,49.8,40.0,29.88,ESE,117,12.0,18.0,69,0.00,,,0.18,Wunderground v.1.15,2013-10-19 17:35:00,
2013-10-19 13:40:00,49.7,39.9,29.88,NNW,338,13.0,13.0,69,0.00,,,0.18,Wunderground v.1.15,2013-10-19 17:40:00,
2013-10-19 13:50:00,49.8,38.1,29.88,East,97,13.0,13.0,64,0.00,,,0.18,Wunderground v.1.15,2013-10-19 17:50:00,
2013-10-19 13:55:00,49.8,38.1,29.88,North,355,13.0,13.0,64,0.00,,,0.18,Wunderground v.1.15,2013-10-19 17:55:00,
2013-10-19 14:00:00,50.5,39.2,29.88,SSE,148,12.0,12.0,65,0.00,,,0.18,Wunderground v.1.15,2013-10-19 18:00:00,
2013-10-19 14:10:00,50.6,36.8,29.87,NE,56,13.0,13.0,59,0.00,,,0.18,Wunderground v.1.15,2013-10-19 18:10:00,
2013-10-19 14:15:00,50.7,36.9,29.87,NNE,23,12.0,13.0,59,0.00,,,0.18,Wunderground v.1.15,2013-10-19 18:15:00,
2013-10-19 14:25:00,50.3,35.2,29.87,NE,48,14.0,18.0,56,0.00,,,0.18,Wunderground v.1.15,2013-10-19 18:25:00,
2013-10-19 14:30:00,50.8,36.1,29.87,NNW,329,15.0,15.0,57,0.00,,,0.18,Wunderground v.1.15,2013-10-19 18:30:00,
2013-10-19 14:35:00,51.1,35.5,29.86,NNW,338,15.0,18.0,55,0.00,,,0.18,Wunderground v.1.15,2013-10-19 18:35:00,
2013-10-19 14:45:00,50.6,33.6,29.86,North,7,14.0,15.0,52,0.00,,,0.18,Wunderground v.1.15,2013-10-19 18:45:00,
2013-10-19 14:50:00,50.8,34.3,29.86,East,82,16.0,16.0,53,0.00,,,0.18,Wunderground v.1.15,2013-10-19 18:50:00,
2013-10-19 15:05:00,52.2,33.6,29.86,East,81,15.0,15.0,49,0.00,,,0.18,Wunderground v.1.15,2013-10-19 19:05:00,
2013-10-19 15:15:00,51.4,33.9,29.86,NW,310,15.0,22.0,51,0.00,,,0.18,Wunderground v.1.15,2013-10-19 19:15:00,
2013-10-19 15:20:00,51.1,33.6,29.86,NNW,327,13.0,13.0,51,0.00,,,0.18,Wunderground v.1.15,2013-10-19 19:20:00,
2013-10-19 15:25:00,51.0,34.0,29.86,North,360,13.0,16.0,52,0.00,,,0.18,Wunderground v.1.15,2013-10-19 19:25:00,
2013-10-19 15:35:00,51.2,35.1,29.86,East,100,11.0,22.0,54,0.00,,,0.18,Wunderground v.1.15,2013-10-19 19:35:00,
2013-10-19 15:40:00,50.5,33.0,29.87,ENE,70,11.0,11.0,51,0.00,,,0.18,Wunderground v.1.15,2013-10-19 19:40:00,
2013-10-19 15:45:00,50.3,34.7,29.87,NNE,23,9.0,22.0,55,0.00,,,0.18,Wunderground v.1.15,2013-10-19 19:45:00,
2013-10-19 15:50:00,50.4,35.3,29.87,NNE,31,6.0,22.0,56,0.00,,,0.18,Wunderground v.1.15,2013-10-19 19:50:00,
2013-10-19 15:55:00,50.5,35.4,29.87,East,91,8.0,22.0,56,0.00,,,0.18,Wunderground v.1.15,2013-10-19 19:55:00,
2013-10-19 16:01:00,50.8,36.1,29.87,North,354,11.0,15.0,57,0.00,,,0.18,Wunderground v.1.15,2013-10-19 20:01:00,
2013-10-19 16:10:00,51.5,34.4,29.87,ENE,64,10.0,10.0,52,0.00,,,0.18,Wunderground v.1.15,2013-10-19 20:10:00,
2013-10-19 16:15:00,51.1,35.0,29.87,SE,126,6.0,10.0,54,0.00,,,0.18,Wunderground v.1.15,2013-10-19 20:15:00,
2013-10-19 16:20:00,50.9,35.7,29.87,NNW,342,6.0,8.0,56,0.00,,,0.18,Wunderground v.1.15,2013-10-19 20:20:00,
2013-10-19 16:30:00,51.4,36.2,29.86,NW,304,7.0,7.0,56,0.00,,,0.18,Wunderground v.1.15,2013-10-19 20:30:00,
2013-10-19 16:35:00,51.8,35.7,29.87,NNW,346,7.0,13.0,54,0.00,,,0.18,Wunderground v.1.15,2013-10-19 20:35:00,
2013-10-19 16:45:00,51.2,35.1,29.87,NNW,347,13.0,18.0,54,0.00,,,0.18,Wunderground v.1.15,2013-10-19 20:45:00,
2013-10-19 16:50:00,51.1,34.5,29.86,North,6,12.0,28.0,53,0.00,,,0.18,Wunderground v.1.15,2013-10-19 20:50:00,
2013-10-19 16:55:00,51.2,34.6,29.87,ESE,103,13.0,28.0,53,0.00,,,0.18,Wunderground v.1.15,2013-10-19 20:55:00,
2013-10-19 17:00:00,51.5,34.4,29.87,South,183,14.0,14.0,52,0.00,,,0.18,Wunderground v.1.15,2013-10-19 21:00:00,
2013-10-19 17:05:00,51.7,35.6,29.87,NNW,334,13.0,28.0,54,0.00,,,0.18,Wunderground v.1.15,2013-10-19 21:05:00,
2013-10-19 17:15:00,51.5,34.0,29.87,East,100,12.0,12.0,51,0.00,,,0.18,Wunderground v.1.15,2013-10-19 21:15:00,
2013-10-19 17:20:00,51.7,35.1,29.87,East,100,12.0,12.0,53,0.00,,,0.18,Wunderground v.1.15,2013-10-19 21:20:00,
2013-10-19 17:25:00,51.6,34.0,29.87,NNW,343,10.0,15.0,51,0.00,,,0.18,Wunderground v.1.15,2013-10-19 21:25:00,
2013-10-19 17:35:00,51.0,34.0,29.87,North,360,13.0,28.0,52,0.00,,,0.18,Wunderground v.1.15,2013-10-19 21:35:00,
2013-10-19 17:40:00,50.9,34.4,29.88,NNE,16,11.0,28.0,53,0.00,,,0.18,Wunderground v.1.15,2013-10-19 21:40:00,
2013-10-19 17:50:00,50.9,33.9,29.88,NW,314,13.0,28.0,52,0.00,,,0.18,Wunderground v.1.15,2013-10-19 21:50:00,
2013-10-19 17:55:00,51.2,33.7,29.88,East,85,14.0,28.0,51,0.00,,,0.18,Wunderground v.1.15,2013-10-19 21:55:00,
2013-10-19 18:00:00,51.2,34.2,29.88,ESE,110,15.0,15.0,52,0.00,,,0.18,Wunderground v.1.15,2013-10-19 22:00:00,
2013-10-19 18:10:00,51.0,34.5,29.88,NW,321,14.0,15.0,53,0.00,,,0.18,Wunderground v.1.15,2013-10-19 22:10:00,
2013-10-19 18:15:00,51.0,34.5,29.89,ENE,64,13.0,15.0,53,0.00,,,0.18,Wunderground v.1.15,2013-10-19 22:15:00,
2013-10-19 18:20:00,51.0,34.5,29.88,NNW,343,11.0,12.0,53,0.00,,,0.18,Wunderground v.1.15,2013-10-19 22:20:00,
2013-10-19 18:25:00,50.8,34.3,29.88,North,352,10.0,13.0,53,0.00,,,0.18,Wunderground v.1.15,2013-10-19 22:25:00,
2013-10-19 18:30:00,50.5,34.5,29.88,East,83,9.0,9.0,54,0.00,,,0.18,Wunderground v.1.15,2013-10-19 22:30:00,
2013-10-19 18:35:00,50.2,34.6,29.88,WNW,299,9.0,23.0,55,0.00,,,0.18,Wunderground v.1.15,2013-10-19 22:35:00,
2013-10-19 18:40:00,49.8,35.2,29.89,NW,310,9.0,23.0,57,0.00,,,0.18,Wunderground v.1.15,2013-10-19 22:40:00,
2013-10-19 18:50:00,49.1,35.4,29.88,NW,316,7.0,23.0,59,0.00,,,0.18,Wunderground v.1.15,2013-10-19 22:50:00,
2013-10-19 18:55:00,48.8,35.1,29.89,WNW,300,7.0,23.0,59,0.00,,,0.18,Wunderground v.1.15,2013-10-19 22:55:00,
2013-10-19 19:05:00,48.3,35.5,29.89,WNW,300,8.0,23.0,61,0.00,,,0.18,Wunderground v.1.15,2013-10-19 23:05:00,
2013-10-19 19:10:00,48.1,35.7,29.89,WNW,291,8.0,8.0,62,0.00,,,0.18,Wunderground v.1.15,2013-10-19 23:10:00,
2013-10-19 19:15:00,47.9,35.5,29.89,NNW,330,8.0,23.0,62,0.00,,,0.18,Wunderground v.1.15,2013-10-19 23:15:00,
2013-10-19 19:25:00,47.5,35.5,29.89,NW,307,7.0,23.0,63,0.00,,,0.18,Wunderground v.1.15,2013-10-19 23:25:00,
2013-10-19 19:35:00,47.2,35.6,29.90,NW,321,7.0,23.0,64,0.00,,,0.18,Wunderground v.1.15,2013-10-19 23:35:00,
2013-10-19 19:40:00,47.1,35.5,29.90,West,280,6.0,6.0,64,0.00,,,0.18,Wunderground v.1.15,2013-10-19 23:40:00,
2013-10-19 19:45:00,47.0,35.8,29.90,WNW,293,6.0,23.0,65,0.00,,,0.18,Wunderground v.1.15,2013-10-19 23:45:00,
2013-10-19 19:50:00,46.8,35.6,29.90,WNW,301,5.0,23.0,65,0.00,,,0.18,Wunderground v.1.15,2013-10-19 23:50:00,
2013-10-19 19:55:00,46.6,35.8,29.90,NW,307,5.0,23.0,66,0.00,,,0.18,Wunderground v.1.15,2013-10-19 23:55:00,
2013-10-19 20:01:00,46.4,35.7,29.91,NW,311,5.0,5.0,66,0.00,,,0.18,Wunderground v.1.15,2013-10-20 00:01:00,
2013-10-19 20:10:00,46.1,35.7,29.91,NW,318,5.0,5.0,67,0.00,,,0.18,Wunderground v.1.15,2013-10-20 00:10:00,
2013-10-19 20:15:00,45.8,36.2,29.91,NW,304,4.0,5.0,69,0.00,,,0.18,Wunderground v.1.15,2013-10-20 00:15:00,
2013-10-19 20:20:00,45.3,35.7,29.91,NW,304,3.0,3.0,69,0.00,,,0.18,Wunderground v.1.15,2013-10-20 00:20:00,
2013-10-19 20:25:00,45.0,36.2,29.91,WNW,289,3.0,4.0,71,0.00,,,0.18,Wunderground v.1.15,2013-10-20 00:25:00,
2013-10-19 20:30:00,44.9,36.1,29.91,WNW,293,3.0,4.0,71,0.00,,,0.18,Wunderground v.1.15,2013-10-20 00:30:00,
2013-10-19 20:35:00,44.7,35.9,29.92,WNW,290,3.0,12.0,71,0.00,,,0.18,Wunderground v.1.15,2013-10-20 00:35:00,
2013-10-19 20:45:00,44.6,36.1,29.92,WNW,293,3.0,12.0,72,0.00,,,0.18,Wunderground v.1.15,2013-10-20 00:45:00,
2013-10-19 20:50:00,44.7,35.9,29.92,WNW,293,4.0,12.0,71,0.00,,,0.18,Wunderground v.1.15,2013-10-20 00:50:00,
2013-10-19 20:55:00,44.9,36.1,29.92,WNW,284,5.0,12.0,71,0.00,,,0.18,Wunderground v.1.15,2013-10-20 00:55:00,
2013-10-19 21:00:00,44.8,36.0,29.92,NNW,332,5.0,12.0,71,0.00,,,0.18,Wunderground v.1.15,2013-10-20 01:00:00,
2013-10-19 21:10:00,44.7,35.9,29.92,NW,306,5.0,5.0,71,0.00,,,0.18,Wunderground v.1.15,2013-10-20 01:10:00,
2013-10-19 21:20:00,44.7,35.9,29.92,WNW,299,5.0,5.0,71,0.00,,,0.18,Wunderground v.1.15,2013-10-20 01:20:00,
2013-10-19 21:25:00,44.6,35.8,29.92,West,270,5.0,12.0,71,0.00,,,0.18,Wunderground v.1.15,2013-10-20 01:25:00,
2013-10-19 21:30:00,44.6,35.8,29.92,WNW,284,5.0,12.0,71,0.00,,,0.18,Wunderground v.1.15,2013-10-20 01:30:00,
2013-10-19 21:35:00,44.9,36.1,29.92,WNW,290,6.0,12.0,71,0.00,,,0.18,Wunderground v.1.15,2013-10-20 01:35:00,
2013-10-19 21:40:00,45.2,36.0,29.92,WNW,295,8.0,12.0,70,0.00,,,0.18,Wunderground v.1.15,2013-10-20 01:40:00,
2013-10-19 21:45:00,45.6,36.0,29.92,WNW,293,9.0,12.0,69,0.00,,,0.18,Wunderground v.1.15,2013-10-20 01:45:00,
2013-10-19 21:50:00,45.7,36.5,29.92,West,273,9.0,9.0,70,0.00,,,0.18,Wunderground v.1.15,2013-10-20 01:50:00,
2013-10-19 21:55:00,45.8,36.2,29.93,NW,319,9.0,12.0,69,0.00,,,0.18,Wunderground v.1.15,2013-10-20 01:55:00,
2013-10-19 22:00:00,45.9,36.7,29.92,WNW,301,9.0,9.0,70,0.00,,,0.18,Wunderground v.1.15,2013-10-20 02:00:00,
2013-10-19 22:10:00,45.9,36.3,29.93,NW,316,10.0,10.0,69,0.00,,,0.18,Wunderground v.1.15,2013-10-20 02:10:00,
2013-10-19 22:15:00,45.8,36.2,29.93,NW,319,11.0,11.0,69,0.00,,,0.18,Wunderground v.1.15,2013-10-20 02:15:00,
2013-10-19 22:20:00,45.9,36.7,29.93,WNW,293,11.0,11.0,70,0.00,,,0.18,Wunderground v.1.15,2013-10-20 02:20:00,
2013-10-19 22:30:00,45.8,36.6,29.94,North,360,10.0,10.0,70,0.00,,,0.18,Wunderground v.1.15,2013-10-20 02:30:00,
2013-10-19 22:35:00,45.8,36.9,29.94,NNW,329,9.0,10.0,71,0.00,,,0.18,Wunderground v.1.15,2013-10-20 02:35:00,
2013-10-19 22:40:00,45.8,36.9,29.94,NW,310,9.0,11.0,71,0.00,,,0.18,Wunderground v.1.15,2013-10-20 02:40:00,
2013-10-19 22:45:00,45.7,37.2,29.94,WNW,293,9.0,11.0,72,0.00,,,0.18,Wunderground v.1.15,2013-10-20 02:45:00,
2013-10-19 22:50:00,45.6,37.1,29.94,WNW,301,9.0,9.0,72,0.00,,,0.18,Wunderground v.1.15,2013-10-20 02:50:00,
2013-10-19 22:55:00,45.6,37.1,29.94,NW,316,8.0,9.0,72,0.00,,,0.18,Wunderground v.1.15,2013-10-20 02:55:00,
2013-10-19 23:05:00,45.7,37.2,29.94,WNW,296,8.0,9.0,72,0.00,,,0.18,Wunderground v.1.15,2013-10-20 03:05:00,
2013-10-19 23:15:00,45.7,37.2,29.94,NW,319,7.0,9.0,72,0.00,,,0.18,Wunderground v.1.15,2013-10-20 03:15:00,
2013-10-19 23:20:00,45.7,37.2,29.94,NW,312,8.0,9.0,72,0.00,,,0.18,Wunderground v.1.15,2013-10-20 03:20:00,
2013-10-19 23:25:00,45.8,37.3,29.94,NW,314,8.0,9.0,72,0.00,,,0.18,Wunderground v.1.15,2013-10-20 03:25:00,
2013-10-19 23:30:00,45.7,37.2,29.94,WNW,293,7.0,7.0,72,0.00,,,0.18,Wunderground v.1.15,2013-10-20 03:30:00,
2013-10-19 23:40:00,45.8,37.3,29.94,NW,307,7.0,7.0,72,0.00,,,0.18,Wunderground v.1.15,2013-10-20 03:40:00,
2013-10-19 23:45:00,45.7,37.2,29.93,WNW,302,9.0,9.0,72,0.00,,,0.18,Wunderground v.1.15,2013-10-20 03:45:00,
2013-10-19 23:50:00,45.6,37.1,29.93,WNW,293,8.0,8.0,72,0.00,,,0.18,Wunderground v.1.15,2013-10-20 03:50:00,
2013-10-19 23:55:00,45.4,37.2,29.93,WNW,297,7.0,9.0,73,0.00,,,0.18,Wunderground v.1.15,2013-10-20 03:55:00,